Aérodrome :
LOGIN :

S'inscrire | Disclaimer

   EN    FR    IT 

 










Légende :    VFR   VFR Marginal   IFR   IFR Intensif   IFR Très Intensif
Visi : 
Plafond : 
>= 8 km
>= 3000ft
5 à 8 km
1000 à 3000 ft
1500m à 5 km
500 à 1000 ft
800 à 1500m
200 à 500 ft
< 800m
< 200 ft
Symboles :   Orages  Brouillard  Fortes neiges  Fortes précipitations  Vent > 20 kt
SIGMETs :   Divers  Orages  Givrage  Turbulence  Onde Orograph.  Cendres Volcan.







- Altitude de l'aérodrome : 37 ft


EHVL - Vlieland Heliport

DERNIER METAR :
  • 211055Z AUTO 07016KT //// // NCD 21/12 Q1017 RE//

METARs EXPIRÉS :
  • 211025Z AUTO 07016KT //// // NCD 20/12 Q1018 RE//
  • 210955Z AUTO 07016KT //// // NCD 20/12 Q1018 RE//
  • 210925Z AUTO 08017KT //// // NCD 19/12 Q1018 RE// RMK CB INFO NOT AVBL
  • 210855Z AUTO 08015KT //// // NCD 19/12 Q1018 RE// RMK CB INFO NOT AVBL
  • 210825Z AUTO 08014KT //// // NCD 18/11 Q1018 RE//

Prévision TAF périmée.
Pas de NOTAMs connus pour ce terrain.



MET'MAP, la Météo Aéronautique d'un coup d'oeil ! - Copyright ORBIFLY Décembre 2007 - Disclaimer

ORBIFLY MET'MAP TEAM :

Programmation & Développement : Alexandra Zaïnal
Conception & Développement : Baudouin d'Aumeries
Co-Programmation & Développement : Marc-Olivier Méhu
Soutien technique & logistique : Manuel Goepfert

Contact : metmap@orbifly.com




SOURCES & CREDITS :

   NOAA